カタログに戻る

NOAA 9

運用中気象SSO
NORAD 15427·PAYLOAD·🇺🇸 United States

打ち上げ Dec 12, 1984 から Vandenberg Space Force Base

Loading…

次のパス (今後24時間)

TLE

最新Source: Space-Track

元期: Sep 14, 2026, 12:59 UTC

1 15427U 84123A   26257.54108887  .00000040  00000-0  43078-4 0  9990
2 15427  99.0950 286.2339 0015674  96.6000  66.2218 14.17087487156071

AllMySatでNOAA 9をリアルタイム追跡

Download on the App Store